Starlink 30401

operational
NORAD ID: 57818 Int'l Des: 2023-138 Owner: SPXS Country: US Constellation: starlink
LEOCIRCULAR

关于 Starlink 30401

正在加载描述...

实时位置

正在加载3D地球...

即将过境

高度历史

Altitude vs Time

uPlot chart will show altitude changes over time

两行轨道根数

1 57818U 23138L 25305.03945052 .00001246 00000-0 10738-3 0 9994
2 57818 43.0036 215.1213 0001788 278.2649 81.7991 15.02521192119266
Epoch: Nov 1, 2025 • Age: 38 hours

当前状态

高度 565.4 km
速度 7.58 km/s
星下点 -26.55°S, 157.35°E
发射日期 Sep 9, 2023
运行时间 2.1 years
类型 internet

技术详情

分类 Payload
质量 730.00 kg
干质量 700.00 kg
总质量 730.00 kg
长度 0.30 m
直径 4.10 m
跨度 29.00 m
形状 Box + pan
制造商 SPXS
平台类型 Starlink V2M
阶段状态 In Orbit
所有者/国家 SPXS/US

大型星座

Loading constellations...